Theta_e
316 315 314 314 316 320 322 323 327 325 326 322 317 321 318 320 322 318 320 320 320 319 319 321 321 321 322 326 327 326 326 330 331 327 332 336 335 337 335 334 332 330 333 334 334 333 333 333 332 330 330 329 329 328 328 330 330 331 331 330 329 326 323 323 324 324 323 322 322 321 320 318 317 314 311 312 319 326 328 329 330 329 327 322 315 309 308 309 309 310 310 311 312 313 313 314 318
316 315 314 315 318 322 322 325 331 328 327 319 315 320 317 322 324 320 323 322 320 319 321 323 322 324 323 323 325 324 327 329 330 332 335 334 336 338 336 335 332 330 332 332 333 333 333 332 331 330 329 329 328 327 327 329 330 329 330 329 328 326 322 322 323 323 323 322 322 321 319 319 318 316 314 318 325 327 327 328 329 329 327 321 312 308 308 309 309 309 310 312 313 314 315 315 316
315 314 315 318 322 323 324 326 330 328 325 319 315 317 319 325 324 322 322 319 319 319 320 322 321 323 323 326 328 326 329 333 333 335 336 336 337 338 337 336 333 331 331 331 333 332 332 331 330 329 328 328 327 327 327 328 329 329 329 328 328 325 321 320 321 322 323 322 322 320 318 318 318 317 317 323 327 328 328 328 329 329 329 322 310 308 308 308 309 310 311 312 314 315 315 317 318
314 315 317 320 325 326 327 329 332 329 320 318 316 316 322 325 323 321 319 318 319 319 320 320 320 321 324 330 329 328 332 334 335 335 336 337 337 338 338 337 334 331 330 330 331 332 331 330 329 328 327 327 327 327 327 329 329 330 330 329 328 324 320 319 320 321 322 322 322 320 318 318 318 317 318 323 327 328 328 328 329 330 330 323 310 307 308 308 309 310 312 313 314 316 319 323 324
314 315 318 320 325 325 327 326 331 331 319 321 319 317 323 323 322 319 317 319 319 319 319 319 321 322 325 328 326 328 330 333 334 334 336 338 337 337 337 338 334 331 330 329 330 331 330 329 329 328 327 326 326 326 327 329 329 329 330 330 328 324 320 318 318 320 322 322 322 319 318 318 317 316 316 320 325 327 328 329 330 330 331 324 310 307 308 308 310 312 313 314 315 317 323 327 326
314 317 320 320 323 322 326 321 321 325 320 325 323 320 323 319 319 318 317 319 318 319 319 318 319 322 326 328 327 326 327 330 332 333 336 338 338 338 337 337 334 331 329 328 329 330 330 329 328 327 325 325 325 324 326 327 327 328 329 330 328 323 320 318 318 320 322 323 323 320 318 318 317 316 314 316 322 326 328 328 330 330 329 321 309 307 308 308 311 313 314 314 315 317 322 324 323
316 320 320 322 323 320 328 324 318 322 318 321 324 323 320 316 317 317 318 319 318 318 319 320 318 321 326 328 327 326 328 326 327 331 335 338 338 338 337 336 334 332 329 328 328 328 329 328 327 326 323 324 324 324 324 325 325 326 328 330 328 323 320 318 318 321 323 324 323 320 319 318 317 315 313 312 315 321 326 327 327 327 324 316 307 307 307 307 310 312 314 314 315 315 317 318 316
320 322 322 325 328 325 328 324 319 324 317 316 320 320 318 316 316 316 317 318 318 317 318 320 319 320 322 325 325 327 328 324 324 331 335 336 337 337 336 335 334 332 330 330 329 328 328 327 327 325 324 324 324 324 323 323 323 323 327 329 326 323 321 318 318 320 324 325 324 321 319 319 318 315 312 311 310 313 318 320 322 321 318 312 307 307 306 308 311 313 315 316 316 316 316 315 315
320 322 321 323 330 332 327 319 317 319 318 317 318 317 317 317 316 316 316 316 317 316 317 319 319 320 320 323 325 328 329 326 327 332 335 335 336 336 334 334 334 333 331 331 331 329 328 327 327 326 325 324 324 324 322 322 322 321 324 326 325 324 321 318 318 319 323 325 324 322 320 319 318 316 312 310 309 308 310 312 314 314 312 309 307 306 306 310 314 316 317 317 318 318 317 317 317
321 322 319 324 333 330 320 317 318 317 317 318 317 317 317 316 316 316 316 316 316 316 317 318 318 320 321 324 325 328 329 328 328 331 334 334 335 335 333 334 334 333 332 333 333 331 330 328 328 327 327 325 324 325 323 322 321 320 321 323 325 326 324 319 318 318 321 325 325 323 321 319 318 318 313 309 308 307 307 308 308 309 308 307 306 306 309 313 316 317 318 318 318 318 318 318 319
321 319 320 327 331 325 320 320 318 317 317 316 316 317 317 316 316 315 316 317 316 317 317 317 320 320 321 323 324 324 326 327 327 329 333 334 336 336 333 333 334 334 333 334 334 333 331 329 330 328 327 326 325 325 324 322 322 321 321 322 323 325 326 321 318 318 320 324 325 324 322 321 318 318 316 312 309 307 306 306 306 307 307 306 306 309 313 316 318 318 318 318 318 318 318 318 319
321 323 331 329 325 325 325 321 317 317 316 316 317 316 317 316 316 315 316 317 316 317 316 317 320 320 321 322 323 321 321 323 326 328 332 335 335 334 332 332 334 334 335 335 335 334 332 330 330 329 327 326 326 326 325 323 322 322 322 322 322 323 326 323 320 318 319 324 325 324 323 322 319 318 318 315 313 309 306 306 306 306 306 306 309 313 317 318 318 317 317 317 317 317 317 318 318
321 324 334 325 322 326 323 320 319 319 316 318 317 315 317 316 316 316 316 317 316 316 315 317 318 320 321 321 323 320 319 320 325 329 331 334 335 333 332 333 334 335 335 335 335 335 334 332 331 329 327 326 327 326 326 323 322 323 322 323 323 324 326 324 322 320 319 321 323 324 324 323 320 319 319 318 317 315 310 307 305 305 305 308 313 317 319 319 318 317 317 317 317 317 317 317 318
322 322 330 323 322 324 321 320 318 319 319 320 316 315 317 315 317 317 317 317 315 315 315 317 318 320 321 322 324 319 316 318 323 329 330 333 335 334 333 333 333 335 336 334 335 335 334 334 332 329 327 326 327 327 327 324 322 323 322 323 323 324 326 324 322 322 319 319 321 324 324 323 321 319 319 319 319 319 316 310 306 305 307 312 317 319 319 319 319 318 318 317 316 315 315 316 316
320 320 329 327 322 321 321 322 320 322 321 319 318 315 316 315 316 316 317 318 316 315 316 317 317 318 320 324 324 316 315 316 319 327 330 333 335 334 334 332 332 335 336 335 335 335 335 335 334 331 328 328 328 327 328 325 322 323 323 323 324 324 325 324 323 323 321 319 320 322 323 323 321 319 319 320 319 320 319 315 309 307 311 316 319 320 319 319 320 319 318 317 315 314 313 313 314
320 319 328 326 320 318 319 321 321 323 319 316 317 316 316 315 315 315 316 316 316 316 316 316 316 317 317 320 320 315 315 314 317 324 329 335 336 335 334 333 333 335 337 336 336 335 335 335 334 333 330 330 329 329 329 327 324 324 324 323 324 324 325 325 323 322 322 321 320 320 322 321 320 319 318 320 320 320 321 318 312 310 314 319 320 320 320 320 320 320 319 317 314 313 312 311 312
317 321 329 323 320 319 317 320 320 322 320 316 315 316 316 315 316 315 316 316 316 316 315 316 315 317 318 318 317 315 315 314 316 320 329 336 335 335 334 333 333 334 335 335 336 335 335 335 335 334 332 331 331 331 331 330 327 325 324 324 324 324 324 326 325 324 323 322 320 319 321 320 320 320 319 319 320 321 321 320 315 313 316 320 321 321 320 320 320 320 319 317 314 312 311 310 311
318 329 332 323 323 320 316 320 318 319 319 315 315 316 316 316 316 316 316 316 315 315 315 315 316 318 318 317 316 316 314 314 316 318 326 332 333 333 332 332 332 331 331 332 334 334 333 334 334 334 333 332 332 332 332 332 330 328 326 324 325 324 324 326 325 325 323 322 320 319 320 320 320 320 320 319 320 321 321 321 318 315 317 320 321 321 321 321 320 320 320 319 316 313 310 310 310
319 330 330 327 330 320 313 317 314 315 317 315 315 315 316 316 315 315 317 315 315 316 316 315 316 317 316 316 316 317 316 314 315 316 319 324 326 326 326 328 328 326 325 326 329 330 332 332 333 333 333 333 332 333 333 333 332 331 329 326 325 325 324 325 325 325 324 322 321 320 320 320 320 321 321 320 320 321 321 321 320 317 317 320 321 321 321 321 320 321 321 320 318 314 310 309 310
316 325 328 328 326 317 313 315 314 316 316 314 314 314 315 315 315 315 315 314 314 316 316 315 316 316 315 315 315 316 317 315 315 315 315 317 318 319 319 321 321 320 319 320 322 325 329 330 331 332 333 333 332 332 333 333 333 333 331 329 327 326 325 324 325 325 325 323 322 321 320 320 321 321 321 320 319 321 321 322 321 320 318 319 321 321 321 321 321 321 322 322 320 314 310 309 309
315 323 329 322 316 315 316 315 315 316 315 315 315 314 315 314 315 315 314 314 314 314 316 316 315 315 315 315 315 316 316 316 315 315 315 315 316 317 316 316 316 316 316 317 320 321 323 327 329 331 332 333 332 332 332 332 333 333 333 331 329 327 325 324 325 325 325 324 323 323 322 321 321 322 322 321 320 320 321 322 322 321 320 320 320 321 321 322 322 322 322 322 321 314 309 309 309
315 317 319 315 313 316 316 315 317 315 315 315 314 314 316 315 315 314 314 316 317 315 315 315 315 314 315 315 315 315 315 315 316 315 315 314 315 315 316 316 316 316 316 316 317 318 320 323 326 329 332 332 333 332 331 332 332 333 333 333 331 329 327 325 325 325 325 324 324 324 323 323 321 322 322 322 321 320 320 321 322 322 321 321 320 321 321 321 322 322 322 323 321 314 308 309 308
318 314 313 314 314 316 316 315 316 315 315 314 314 315 315 315 315 314 313 315 316 315 316 315 315 315 315 315 314 314 315 314 315 315 315 315 315 315 315 315 315 315 315 315 315 317 318 320 323 327 330 331 332 333 332 331 332 333 334 334 333 331 329 327 325 325 324 323 324 325 325 325 323 322 322 322 321 321 320 320 322 322 322 322 321 321 320 321 322 322 322 323 321 314 308 309 309
319 317 313 315 315 315 315 315 316 315 315 315 315 315 315 315 317 315 314 315 315 316 317 316 316 316 315 315 315 314 315 315 315 315 315 315 315 315 315 315 315 315 315 315 315 316 317 318 320 322 327 330 331 332 333 332 331 333 334 334 334 332 331 330 327 326 325 323 324 325 325 326 326 324 323 322 322 322 322 321 321 321 322 323 322 321 321 321 322 323 322 323 321 313 308 309 309
317 317 313 314 315 315 315 315 315 316 316 315 315 315 314 316 316 315 316 316 316 316 317 317 316 316 316 316 316 315 315 315 315 315 315 315 315 315 315 315 315 315 315 315 315 316 316 317 317 318 321 325 329 331 332 331 331 333 333 334 334 333 333 332 330 328 326 325 324 326 326 327 327 326 325 323 323 323 323 322 322 321 322 323 323 322 321 321 322 323 323 323 321 313 308 309 310
315 316 315 314 314 314 314 314 315 315 315 315 316 315 315 315 315 316 316 316 316 316 316 317 316 316 317 317 316 316 315 315 315 315 315 315 315 315 315 315 315 315 315 315 315 315 315 316 316 316 317 320 325 328 329 330 331 331 332 332 333 334 333 333 332 330 329 327 326 327 328 328 327 328 327 325 325 325 324 323 323 323 323 323 323 323 322 322 323 323 323 323 321 313 308 309 310
315 315 314 315 314 314 314 314 314 315 315 315 316 316 315 314 315 318 317 316 316 316 316 316 316 316 316 316 317 317 316 316 316 315 315 315 315 315 315 315 315 315 315 315 315 315 315 315 315 316 317 317 321 324 325 327 329 329 330 331 332 333 334 333 333 332 331 330 329 328 328 328 328 328 328 327 326 326 326 325 324 323 323 323 323 323 322 322 322 323 323 323 321 314 308 309 311
315 315 315 314 313 314 314 315 314 315 316 314 316 315 314 314 315 318 316 316 317 316 316 316 316 316 316 316 316 316 317 316 316 316 315 315 315 315 315 315 315 315 315 315 315 315 315 315 315 316 316 317 318 320 321 323 326 328 329 331 331 332 333 334 333 333 332 331 330 329 329 329 329 329 328 328 328 327 327 326 325 325 324 324 323 323 322 322 322 323 323 322 320 314 308 309 311
314 317 318 315 316 318 315 314 314 315 316 315 315 315 316 317 316 317 315 316 317 316 316 316 316 316 316 316 316 316 317 316 316 316 316 316 316 316 316 316 316 316 316 315 315 314 315 315 315 316 317 317 317 317 317 319 321 325 328 329 329 330 331 333 333 332 331 330 330 329 329 329 329 329 329 329 329 328 328 327 326 326 325 325 324 324 323 323 322 323 323 322 319 313 309 309 311
316 315 318 320 321 322 315 313 314 314 315 315 314 316 322 321 316 315 316 315 316 316 317 316 316 317 316 316 316 316 316 316 316 316 317 317 316 316 316 316 316 316 316 315 315 315 315 315 315 316 317 317 317 317 316 316 318 322 325 326 328 330 330 331 332 332 331 330 329 329 329 329 329 329 330 329 329 329 328 328 327 326 326 325 325 324 323 323 323 323 323 322 318 313 309 309 310
318 313 320 325 319 323 319 312 314 315 315 315 314 316 323 323 316 315 317 316 316 316 317 317 316 316 316 316 316 316 317 317 317 317 317 317 317 317 316 317 316 316 316 316 315 316 315 315 315 315 316 317 317 317 316 315 316 319 322 324 328 332 331 331 332 332 331 330 329 329 329 329 328 329 330 329 329 329 329 328 328 327 326 326 325 325 324 324 324 323 323 323 319 314 309 309 309
323 315 322 324 316 325 325 312 313 317 315 314 315 318 322 321 316 316 317 317 316 316 317 317 317 317 316 317 316 317 317 317 317 317 317 317 317 317 317 317 316 317 316 316 316 315 315 316 315 315 315 316 317 317 317 316 316 317 318 321 326 331 333 332 332 331 330 329 329 330 329 329 328 329 329 329 329 329 329 329 328 327 327 327 326 325 325 324 324 323 323 323 321 316 311 309 309
328 320 323 324 317 322 323 314 313 315 315 314 314 318 321 319 315 316 317 316 316 316 317 317 317 318 317 317 317 317 317 317 317 317 318 317 317 318 318 317 317 317 317 316 316 316 316 315 316 316 315 316 316 317 318 317 317 317 318 319 323 327 330 332 332 330 330 330 330 330 330 329 329 328 328 328 329 329 329 329 329 328 328 327 327 326 324 324 324 324 324 323 321 318 313 309 308
323 319 320 323 320 319 321 320 314 312 315 317 315 316 320 319 315 315 317 316 316 316 317 318 317 317 317 317 317 317 317 317 317 317 317 317 317 317 318 318 317 317 317 317 317 316 316 316 316 316 316 316 316 317 318 317 317 317 318 320 323 325 327 329 330 329 331 333 331 329 330 329 329 328 327 328 328 329 329 329 329 328 328 328 328 327 325 323 323 324 324 323 320 317 313 310 309
321 320 320 320 318 317 320 321 316 314 316 317 317 316 318 319 314 314 316 315 314 315 316 316 316 316 316 317 316 317 317 317 317 317 317 317 317 317 317 318 318 317 317 317 317 317 317 316 316 316 316 317 317 317 318 318 318 317 318 322 326 327 327 328 328 326 328 331 331 330 330 329 329 328 327 328 329 330 329 329 328 327 328 328 328 327 325 324 323 324 324 323 321 316 312 311 310
325 326 328 326 320 317 320 320 314 314 316 317 318 317 317 318 315 313 315 315 312 313 315 315 315 316 316 316 316 317 317 317 317 317 317 317 317 317 317 318 318 318 317 317 317 317 317 317 317 317 317 317 318 319 319 319 318 317 317 321 325 326 327 327 326 325 324 326 331 334 333 331 330 329 329 327 328 330 330 329 329 327 327 327 327 327 327 325 324 324 323 323 322 317 311 310 310
324 324 328 327 321 318 318 318 314 311 316 320 318 318 316 316 316 312 312 314 311 311 312 313 315 316 315 316 316 316 316 317 317 317 317 317 317 318 318 318 318 318 318 317 317 317 317 316 316 317 317 317 318 318 318 318 317 317 316 317 319 321 324 326 325 325 324 324 327 331 332 332 330 329 329 329 328 329 331 330 329 328 328 327 327 327 327 326 324 323 323 323 322 319 313 310 309
322 323 323 321 319 319 316 316 316 311 314 321 319 318 318 316 316 312 311 312 311 311 312 312 314 315 314 315 315 316 316 316 316 317 317 317 317 317 318 318 318 318 318 317 318 317 317 317 316 316 316 317 317 317 317 317 316 316 316 316 316 317 319 322 322 323 324 324 325 326 328 329 328 327 329 331 330 328 330 331 330 329 328 327 326 326 326 326 325 324 323 323 321 319 317 313 309
327 323 320 319 320 320 317 317 319 315 315 323 323 320 318 316 316 313 310 312 313 313 313 313 314 313 314 314 315 316 315 316 316 316 317 316 317 317 317 318 317 318 318 318 318 318 317 317 317 316 316 316 316 317 317 318 317 317 317 317 317 318 319 319 321 322 324 325 325 325 326 327 328 327 325 326 327 327 330 331 330 330 329 326 326 327 326 325 326 324 323 323 321 317 315 314 311
328 324 321 321 321 320 319 318 318 317 316 319 322 320 317 317 319 318 313 311 313 314 314 314 314 313 315 315 315 316 315 316 316 316 317 316 317 317 317 317 318 318 318 318 318 318 318 318 317 317 316 316 316 317 317 317 319 319 319 319 319 319 320 320 322 322 323 324 324 325 325 324 326 327 325 324 327 330 332 331 330 330 329 326 325 327 327 325 326 325 323 323 323 320 316 314 310
322 331 331 325 321 318 319 321 319 317 317 317 318 319 323 326 329 330 320 313 314 315 315 316 316 316 316 316 315 316 316 316 316 316 317 317 317 317 317 318 318 318 318 318 318 318 318 318 318 317 317 317 316 316 317 317 319 320 320 320 320 320 320 321 321 320 320 320 321 322 321 322 324 326 327 326 327 331 332 331 330 330 329 327 325 325 325 325 325 325 324 323 323 323 321 316 309
318 328 332 326 325 323 322 324 322 319 319 318 316 317 330 335 329 328 325 319 318 316 313 315 318 317 317 317 317 317 317 317 317 317 317 317 317 317 318 318 318 318 319 319 319 319 319 318 318 318 317 317 317 317 317 317 318 319 319 319 319 318 318 318 317 316 316 317 317 318 319 321 321 322 326 326 325 327 329 328 329 330 329 328 327 325 324 325 325 324 324 323 322 323 323 318 312
317 319 324 327 331 328 325 323 318 320 319 316 315 316 323 326 319 319 319 317 317 315 311 312 314 315 315 317 318 318 318 317 318 319 318 318 318 319 319 319 319 319 319 319 319 319 319 319 318 318 317 317 317 317 317 317 318 318 318 318 317 317 316 315 315 315 315 315 316 317 319 320 321 321 324 327 326 327 329 330 331 331 329 329 328 327 326 325 324 323 323 323 322 322 322 320 317
319 318 322 327 328 327 330 326 319 322 320 318 322 321 320 321 319 318 316 315 318 318 317 315 312 313 313 314 318 318 318 318 318 319 320 320 320 319 319 319 319 319 319 319 319 319 318 318 318 317 317 317 316 316 317 317 317 317 317 317 317 316 315 315 315 315 315 315 316 316 317 319 321 321 323 326 327 329 331 332 332 331 329 329 327 327 326 325 324 323 323 322 321 322 322 321 321
320 318 322 325 326 328 335 333 326 323 317 319 325 319 318 325 329 325 317 317 322 324 326 321 312 312 313 314 317 318 317 318 319 320 320 320 319 319 319 319 319 319 319 319 318 318 318 317 317 317 317 316 316 316 316 316 316 316 316 316 315 315 315 315 315 315 315 315 315 315 315 315 317 319 321 324 326 328 329 330 331 329 327 326 326 327 326 325 324 323 323 322 322 322 322 321 320
317 316 322 325 327 329 331 330 326 322 316 319 326 319 315 323 330 328 318 319 325 323 323 317 310 312 315 316 316 317 318 318 319 320 320 319 319 319 319 319 319 318 318 318 318 318 318 317 317 317 317 317 316 316 316 316 316 315 315 315 315 315 315 315 315 315 314 314 314 313 313 312 313 315 317 320 323 326 328 328 328 326 326 327 327 327 325 324 322 321 322 323 323 322 321 321 320
314 322 327 326 328 330 332 331 323 317 318 323 326 319 314 319 327 327 319 320 324 320 320 320 316 315 315 317 317 318 319 319 320 320 319 319 318 318 319 318 318 318 318 318 318 318 318 318 317 318 317 317 317 317 316 316 316 316 315 315 315 315 315 314 314 314 314 313 313 312 312 312 311 311 312 315 318 321 325 327 327 327 328 328 328 326 323 321 320 320 322 322 322 321 320 320 321
317 330 330 322 326 328 329 331 323 316 320 324 325 320 313 316 325 326 321 321 321 318 321 326 322 316 317 319 319 320 320 320 320 319 318 318 318 318 318 318 318 318 318 318 318 318 318 318 318 318 317 317 317 317 317 317 316 316 316 315 315 315 314 314 314 314 314 313 313 312 312 312 311 311 311 312 313 315 318 321 323 326 326 327 327 323 320 319 320 321 322 322 322 321 320 320 321
321 325 324 318 321 322 321 325 323 321 319 317 321 321 315 317 322 321 321 322 321 317 316 318 317 317 320 320 320 320 320 320 319 318 319 318 318 318 318 318 318 318 318 318 318 318 318 317 317 317 317 317 317 317 317 316 316 316 316 315 315 315 315 315 314 314 314 314 313 313 312 312 312 311 310 311 311 312 313 315 317 319 322 324 324 320 319 322 323 322 322 322 321 321 320 320 321
319 318 320 320 321 319 320 322 319 320 320 316 316 318 319 321 320 319 321 318 316 313 313 315 316 317 319 319 319 320 319 319 319 319 319 318 318 318 318 318 318 318 318 318 317 317 317 317 317 317 317 317 317 317 317 317 316 316 316 316 315 315 315 315 315 314 314 314 313 313 313 312 312 311 311 311 311 312 314 314 314 316 319 321 321 320 323 325 325 324 323 321 320 320 320 320 321
318 319 317 319 324 323 323 323 319 319 321 318 315 318 324 325 317 316 316 312 313 314 315 316 316 317 318 317 319 319 319 319 319 319 319 318 318 318 318 318 317 318 317 317 317 317 317 317 317 317 317 317 317 317 317 317 317 316 316 316 316 315 315 315 314 314 314 314 314 313 313 313 312 311 311 310 311 312 313 312 313 315 318 319 321 323 325 325 325 324 323 321 321 320 320 320 321
318 318 315 316 322 322 319 319 320 320 320 319 317 321 327 323 316 314 312 313 314 314 315 316 316 317 317 317 318 318 319 319 318 319 318 318 318 318 318 318 317 318 317 317 318 317 317 317 317 317 317 317 317 317 317 317 317 317 316 316 316 315 315 315 315 315 314 314 313 313 313 313 313 312 311 310 311 312 312 313 316 319 320 321 323 324 325 325 325 324 323 322 321 320 320 320 321
317 316 317 317 317 319 318 315 314 315 316 318 318 320 321 317 316 317 316 318 318 315 314 313 315 318 316 316 317 316 318 318 318 318 317 318 318 318 318 318 317 318 317 317 317 317 317 317 317 317 317 317 317 317 317 317 317 317 316 316 316 316 315 315 314 314 314 314 313 313 313 313 313 312 311 310 310 312 313 315 319 321 322 322 323 324 325 325 324 324 323 322 321 321 321 321 321
319 320 319 315 314 319 323 320 319 317 316 318 318 316 317 315 317 319 316 316 319 318 315 311 313 315 313 315 316 315 317 317 317 317 317 317 318 318 318 317 317 318 317 317 317 317 317 317 317 317 317 317 317 317 317 317 317 317 316 316 316 316 315 315 314 314 313 313 313 313 313 313 313 312 311 309 310 313 315 317 319 320 321 322 323 323 324 324 324 324 323 322 322 322 321 321 320
317 319 317 317 320 321 320 318 320 319 317 322 321 315 314 314 316 318 315 315 319 319 318 317 314 313 313 315 315 315 316 316 317 317 317 317 318 318 318 317 317 317 317 317 317 317 317 317 317 317 317 317 317 317 317 316 317 317 317 316 316 316 315 314 314 313 313 313 313 313 313 313 313 312 311 309 309 313 317 318 319 319 321 322 322 323 324 324 323 323 323 322 322 322 321 321 320
314 315 313 318 324 323 321 318 318 319 318 320 320 314 316 318 317 316 315 318 320 318 320 320 314 312 315 315 315 315 316 317 317 317 318 318 318 318 317 317 317 317 317 317 317 317 317 317 317 317 317 317 317 317 317 316 317 316 316 316 316 316 315 314 314 313 313 314 313 313 313 313 313 312 311 310 308 311 315 319 319 319 319 319 320 321 323 324 323 322 321 322 323 322 321 320 319
317 318 317 318 318 318 320 318 316 320 321 321 317 313 320 325 320 316 315 317 318 317 319 316 310 311 314 313 315 316 316 317 318 318 319 319 318 318 318 317 317 317 317 317 317 318 317 317 317 317 317 317 317 317 317 316 316 316 316 316 316 316 315 314 314 313 314 314 314 314 313 313 313 312 311 310 309 309 312 315 317 317 318 317 318 320 321 322 322 321 321 321 322 322 321 320 320
317 317 317 318 317 317 318 316 315 317 318 321 318 312 318 324 318 316 319 318 315 313 312 311 310 311 313 314 315 316 316 318 318 317 319 318 317 318 318 317 317 317 317 317 317 317 317 317 317 317 317 317 317 317 317 317 317 316 316 315 316 316 315 315 314 314 314 314 314 314 313 312 312 312 311 310 309 309 311 314 315 316 318 318 318 320 321 321 321 321 321 321 321 321 321 320 320
Wind_Speed
6 6 7 5 4 4 4 2 1 3 4 3 0 1 2 2 2 4 2 1 1 3 8 11 10 10 9 10 12 10 7 2 3 3 4 13 23 22 18 19 19 19 19 18 17 17 16 15 15 15 14 14 13 13 13 12 12 13 13 12 12 13 13 13 13 13 13 14 13 13 13 13 13 14 15 17 19 21 20 18 17 14 11 10 11 13 15 15 16 18 19 18 18 17 17 17 18
5 6 6 4 3 3 2 2 1 3 5 3 1 2 1 3 3 5 4 3 4 6 12 16 18 18 16 15 11 7 7 4 3 7 13 24 26 20 18 19 19 19 19 19 18 17 17 16 15 14 14 14 13 12 12 12 11 11 11 11 11 11 11 12 12 12 13 13 12 12 12 12 13 13 15 18 19 19 19 17 16 14 12 10 11 13 15 15 16 18 18 18 17 17 17 18 18
5 5 4 3 2 2 0 3 2 2 4 3 2 2 1 3 4 5 5 5 10 14 15 15 13 11 9 8 5 3 3 5 11 16 22 27 25 22 20 18 18 18 18 18 18 18 17 17 16 15 14 13 13 12 11 11 11 11 11 11 10 10 11 11 11 12 12 12 12 12 12 12 12 12 15 19 19 17 17 16 15 14 11 10 11 14 15 15 16 17 18 17 17 17 18 18 17
5 4 3 2 2 2 2 3 2 5 4 3 1 3 2 6 6 5 4 8 12 12 9 9 7 4 5 6 6 5 5 9 16 21 25 26 23 23 22 19 19 18 18 17 17 17 17 17 16 15 14 13 12 11 11 11 11 10 10 10 9 9 11 11 11 11 11 12 11 12 12 12 11 12 14 17 18 17 16 16 15 14 11 9 11 14 15 15 16 17 18 17 17 17 18 18 16
5 3 3 2 2 1 2 3 2 5 3 4 3 4 5 6 6 5 5 8 8 6 7 9 5 5 8 7 4 3 7 11 17 21 25 25 21 23 22 20 20 19 19 17 17 16 15 15 14 14 13 13 12 10 10 10 10 9 9 9 9 9 11 11 10 10 11 11 11 11 12 12 11 11 13 16 17 17 16 15 14 13 11 10 11 14 14 15 16 17 17 16 16 17 19 19 16
4 3 2 2 1 0 1 3 3 2 4 6 4 4 6 6 8 8 8 8 7 7 8 9 7 8 8 6 4 7 9 10 16 21 25 24 21 23 22 21 21 20 19 18 17 15 15 14 13 12 12 11 10 9 9 10 9 9 8 8 8 8 10 10 9 10 11 12 11 11 11 11 11 10 11 13 15 16 15 14 14 12 11 11 13 14 15 15 16 17 16 15 15 16 18 17 16
2 2 1 1 1 1 2 4 4 2 2 5 6 6 7 8 11 12 9 7 6 7 8 9 12 10 5 5 6 7 7 6 15 22 24 24 23 23 23 22 21 21 20 19 17 16 15 14 13 12 12 11 10 9 8 9 8 8 9 8 7 7 9 9 8 9 11 11 11 11 11 11 11 10 11 11 12 14 15 15 14 13 11 12 14 14 14 15 16 17 16 15 14 15 15 13 13
3 2 1 2 1 3 3 2 2 3 1 3 6 8 12 13 14 11 6 5 5 5 8 10 11 7 3 5 4 5 6 7 13 21 24 23 23 22 22 23 21 21 21 19 18 17 16 15 14 13 12 11 10 9 8 8 8 8 9 8 7 7 8 7 7 8 10 11 10 10 11 11 11 10 10 10 10 11 13 13 12 12 11 12 14 15 15 16 17 17 16 15 14 13 13 13 12
3 1 1 2 1 3 3 2 1 2 0 3 4 8 15 18 15 10 5 3 5 7 9 10 8 5 5 6 5 8 8 9 14 21 22 22 23 21 22 23 21 21 20 19 19 17 17 16 14 13 13 12 12 11 9 8 8 8 8 8 7 7 8 6 7 8 9 10 10 10 10 11 10 10 10 10 10 9 9 9 10 11 12 13 15 15 16 16 17 16 16 14 13 13 12 13 13
2 1 1 2 2 4 2 0 0 1 2 3 5 12 18 18 14 11 8 5 7 8 8 9 7 7 9 7 7 10 9 10 16 21 21 22 23 21 21 22 21 21 20 19 18 17 17 16 15 14 13 12 12 11 10 9 8 8 8 9 7 8 7 6 6 7 8 9 10 10 10 10 10 10 9 10 10 9 9 9 10 11 13 14 15 16 16 16 16 16 15 14 13 12 12 12 13
1 1 2 3 4 2 2 3 1 0 2 1 4 14 19 18 14 10 9 7 7 8 8 6 6 12 10 6 8 9 10 11 15 19 22 24 23 21 20 20 20 19 19 18 17 17 16 15 15 14 13 12 12 11 10 10 9 8 8 9 8 8 8 6 6 6 7 9 9 9 9 9 9 9 9 9 10 10 10 11 11 12 13 15 16 17 17 16 15 15 14 14 13 11 10 10 12
1 2 3 4 2 3 4 4 4 1 1 2 4 11 16 17 13 8 9 9 8 7 8 6 9 14 6 2 7 10 12 11 14 18 22 25 24 22 20 19 19 18 17 17 16 17 16 16 15 15 14 13 12 11 10 10 10 9 8 8 8 8 8 6 6 6 6 8 9 9 9 8 8 8 9 9 10 10 10 11 12 12 13 15 17 17 16 15 15 14 14 12 11 10 9 8 9
2 1 5 2 2 3 4 4 4 1 1 4 5 9 15 15 13 15 14 11 10 7 6 7 12 13 3 2 8 12 14 14 15 18 22 25 25 23 21 19 18 18 17 16 16 16 16 16 15 15 15 14 13 12 11 11 11 10 9 8 8 8 8 6 6 5 5 6 8 9 8 8 8 8 8 9 10 11 11 11 12 13 14 16 17 16 15 14 14 14 13 11 10 9 8 7 7
3 2 4 2 1 3 5 3 2 3 2 6 4 9 13 11 13 20 16 10 8 8 8 8 14 10 3 4 8 16 18 17 19 19 22 25 26 24 22 20 18 18 17 17 16 16 16 16 16 16 16 15 14 14 12 12 12 12 11 10 9 9 9 7 6 5 4 5 7 8 8 7 7 7 8 8 9 10 11 11 12 13 15 17 16 15 14 14 13 12 11 10 9 8 7 6 6
3 2 4 3 2 1 4 3 3 5 4 5 6 10 10 6 10 18 16 10 7 10 10 8 12 6 5 9 8 17 21 19 22 21 23 27 27 25 22 21 19 18 18 18 17 16 16 16 16 16 16 16 15 15 13 13 13 13 13 12 11 10 10 9 7 6 5 5 6 7 7 6 6 6 7 8 9 9 10 10 12 14 15 16 15 14 14 13 12 11 10 9 8 7 6 6 6
3 2 4 2 0 2 3 2 4 4 4 5 8 10 7 5 9 14 13 10 9 12 10 8 10 4 7 10 4 15 22 21 23 23 27 29 28 26 23 21 19 19 19 19 19 18 17 16 17 17 17 16 16 15 14 14 13 14 14 13 12 11 11 10 9 8 7 6 6 6 7 7 6 6 6 8 9 9 10 10 11 13 15 15 14 13 13 11 10 9 9 8 7 7 6 6 7
2 2 4 1 2 3 3 4 4 4 4 5 9 11 7 3 7 10 9 10 13 13 9 9 10 6 8 7 5 16 22 23 25 26 30 31 29 27 25 23 22 22 22 22 21 20 19 18 19 18 18 17 17 16 15 15 14 14 14 14 13 12 12 12 11 9 8 7 6 6 7 7 6 6 6 8 9 9 10 10 11 13 14 14 13 12 11 10 9 8 7 7 7 6 6 6 7
2 3 3 2 3 2 4 6 6 4 5 8 12 13 9 5 7 10 8 9 13 11 8 10 10 10 9 7 10 18 21 23 25 28 32 32 30 28 26 25 25 25 25 25 23 22 21 20 20 20 20 19 18 17 16 16 15 15 15 15 14 13 13 13 12 11 9 8 7 7 7 7 7 7 7 7 9 9 10 10 11 13 14 13 12 11 10 9 8 7 6 6 6 5 5 5 6
3 3 3 3 5 3 3 4 6 3 6 13 14 13 11 9 12 12 7 6 10 8 6 9 10 12 11 10 13 17 19 22 24 27 30 30 29 28 26 26 26 26 25 25 25 24 23 22 21 21 21 21 20 19 18 18 17 16 16 15 15 14 14 14 13 12 10 8 7 7 7 8 8 8 8 8 8 9 10 11 11 12 12 12 11 10 9 8 7 6 5 5 5 5 4 4 5
2 3 3 5 6 3 1 1 3 5 9 15 13 12 9 9 14 12 7 7 6 7 9 9 11 14 14 12 14 16 18 20 23 25 27 27 27 27 25 24 24 23 22 23 24 24 23 23 22 22 22 22 21 21 20 20 19 18 17 17 16 16 16 15 14 13 12 10 8 8 8 8 8 9 9 9 9 9 10 11 11 11 12 11 10 8 8 7 6 5 5 5 5 4 4 4 5
2 4 3 5 5 2 1 3 1 4 13 17 14 11 6 8 14 12 10 7 3 11 16 14 13 16 17 16 16 16 17 19 22 24 26 26 26 26 25 22 20 19 19 21 23 24 23 23 23 23 22 22 22 22 21 21 21 20 19 18 18 18 17 17 16 15 14 12 10 10 9 9 9 10 10 9 9 10 10 10 11 11 11 11 10 9 8 7 6 5 4 4 5 5 5 5 6
3 1 2 4 5 2 1 2 1 5 12 14 12 9 6 9 11 12 13 9 7 14 17 16 14 15 17 17 18 18 18 19 21 23 24 25 25 26 25 24 23 21 22 23 23 23 23 23 23 23 23 23 23 23 22 22 22 21 21 20 20 19 19 18 18 17 16 14 12 11 11 10 11 12 11 11 10 10 10 11 11 12 12 12 11 10 9 8 7 6 5 5 5 6 7 7 8
3 1 1 3 5 4 4 3 3 8 11 11 10 9 9 10 7 12 14 12 10 10 12 15 14 13 15 17 19 20 20 20 21 21 21 22 23 23 23 24 24 23 23 23 23 23 23 24 24 24 24 24 24 24 23 23 23 22 22 21 21 21 20 20 19 19 18 16 14 13 12 11 12 13 12 12 11 11 11 11 12 12 12 12 12 11 10 9 8 7 6 6 6 7 8 9 11
4 2 2 2 3 5 7 6 6 8 11 10 9 9 10 9 6 8 13 16 13 7 6 9 13 15 16 18 20 21 20 20 20 19 18 18 18 18 20 21 22 23 23 23 24 24 25 24 24 25 25 25 25 25 25 25 24 24 23 22 22 22 21 21 20 20 20 18 16 15 14 13 13 13 13 13 12 11 11 11 11 12 12 13 12 11 10 10 9 8 7 8 7 8 10 11 15
3 3 4 3 3 4 6 6 6 7 9 8 8 8 8 8 4 6 13 17 14 11 8 7 9 13 16 19 20 21 21 20 19 19 19 18 18 18 20 21 22 24 24 23 24 25 25 26 25 26 26 26 26 26 26 26 26 25 25 24 23 23 22 21 21 21 21 20 18 17 16 15 15 15 13 13 12 11 12 12 11 12 12 13 13 13 12 11 10 9 8 8 9 9 11 13 16
2 7 7 5 3 4 5 6 6 5 5 6 5 3 4 6 3 7 16 17 16 16 14 12 11 12 14 17 19 21 21 21 19 19 19 18 20 21 21 22 23 25 23 22 24 24 25 26 26 27 26 26 27 28 28 28 27 27 26 25 25 24 23 22 22 22 22 21 20 18 17 16 15 16 15 13 13 12 12 12 11 12 12 13 14 14 13 12 11 10 9 9 10 10 12 15 17
7 11 9 6 4 4 3 5 5 4 3 3 4 2 2 5 1 6 12 11 15 19 18 17 16 16 15 15 18 19 20 20 19 18 19 20 21 22 22 23 24 24 24 24 24 24 24 26 27 27 26 26 27 28 29 29 29 28 27 27 26 26 24 23 23 23 23 22 21 20 19 18 17 17 16 15 14 13 13 12 11 12 13 14 15 15 15 14 12 11 10 10 11 11 13 16 18
13 15 8 3 2 1 2 3 4 3 2 1 1 0 1 2 2 11 12 6 10 17 20 20 19 19 17 16 17 19 20 19 18 20 20 21 21 21 22 22 23 22 23 24 23 23 24 25 26 26 26 26 27 28 29 29 29 29 29 29 29 28 26 25 25 25 24 23 22 21 20 19 18 17 17 16 15 15 14 12 12 12 13 15 16 17 16 15 14 12 11 12 12 13 14 16 19
14 12 5 4 6 3 4 3 4 3 1 1 1 2 4 2 8 17 12 5 7 11 18 22 22 21 19 18 19 20 21 20 21 23 22 22 22 22 22 21 21 22 22 22 22 23 23 24 25 25 26 26 27 28 28 29 29 30 30 31 30 29 28 27 26 26 25 24 23 22 21 21 20 19 18 17 16 16 15 13 12 13 14 16 17 18 18 17 16 14 13 14 15 16 17 18 20
9 5 4 2 6 4 5 2 3 3 1 2 3 2 6 6 15 20 11 8 10 11 16 21 22 22 21 20 20 20 20 21 23 23 22 22 22 23 22 21 22 23 22 22 24 24 23 23 24 25 26 26 26 27 27 27 28 29 31 31 30 29 29 28 28 26 26 26 25 23 22 22 21 21 20 18 18 18 17 15 14 15 16 17 18 18 19 17 16 15 15 16 17 18 18 19 21
4 1 2 3 2 4 6 1 5 5 2 3 4 1 7 8 13 13 9 12 13 13 15 17 21 22 22 22 22 22 21 21 22 21 22 22 22 23 23 22 22 23 23 24 24 24 23 24 24 24 25 26 26 26 26 26 27 28 29 30 30 29 29 29 29 28 28 27 26 25 24 24 23 23 23 21 20 20 20 18 16 17 18 18 18 18 19 18 17 17 17 17 19 20 20 20 21
3 2 1 3 3 4 7 2 8 6 2 2 4 1 6 9 10 6 4 7 11 14 14 15 19 20 22 23 23 23 22 22 23 23 23 22 22 22 22 22 23 23 24 24 24 24 25 25 25 25 25 25 26 25 26 26 27 28 28 29 30 31 31 31 31 30 29 28 27 26 26 26 25 24 25 24 21 22 22 21 19 19 19 19 19 19 19 19 18 19 19 19 20 22 22 22 23
4 3 3 2 2 3 5 2 6 5 2 1 2 2 4 5 5 2 4 1 7 12 13 14 17 19 21 23 24 25 25 24 24 24 22 21 21 20 20 21 22 22 23 23 24 25 26 26 26 26 26 25 25 25 25 26 27 27 27 28 29 31 33 33 33 31 30 30 28 28 28 28 28 27 26 26 24 23 23 23 21 21 21 21 20 19 19 20 20 20 21 21 22 23 23 24 25
2 2 1 3 3 3 2 3 4 3 3 2 1 3 7 7 9 8 4 2 6 11 14 16 17 19 21 22 24 25 25 25 26 25 24 23 22 20 19 20 21 22 22 23 24 25 26 26 27 26 26 26 25 25 25 26 26 27 27 28 29 31 32 33 33 31 32 34 30 29 31 30 30 29 27 27 27 26 25 25 24 23 23 22 22 20 20 21 22 22 23 24 24 24 24 26 26
5 3 2 2 2 2 3 3 3 3 3 3 2 3 10 12 15 20 19 14 13 16 20 22 23 25 26 26 28 27 28 29 29 27 24 23 23 22 21 19 19 21 22 23 23 24 26 27 28 27 27 27 26 26 25 26 26 27 28 29 31 32 33 33 32 31 32 34 35 35 35 33 31 30 30 28 29 31 30 28 27 25 24 23 23 23 22 23 24 25 25 25 25 26 26 27 27
8 6 5 4 3 3 5 4 4 3 3 3 6 6 9 11 12 18 25 22 16 19 24 27 29 30 31 31 32 31 32 33 30 27 24 24 23 22 21 20 20 20 21 22 23 24 26 27 28 29 28 28 28 28 27 27 28 29 31 32 34 35 35 34 33 33 32 32 36 37 36 33 30 30 32 31 32 35 35 32 30 29 27 25 25 27 26 24 24 26 27 27 28 29 29 29 29
7 6 5 4 4 2 4 3 4 1 3 5 7 6 9 11 10 15 26 23 15 19 24 28 33 34 34 34 34 34 33 33 30 28 27 25 24 23 23 23 23 23 23 24 24 25 26 26 28 29 28 29 30 30 30 30 30 31 32 33 35 36 36 36 34 34 33 32 35 37 37 37 34 34 35 35 34 37 39 36 33 32 30 27 26 27 28 26 25 27 29 29 30 31 32 32 32
5 6 5 2 3 2 3 2 4 2 2 4 3 5 10 11 10 16 22 17 16 23 24 29 35 34 34 34 34 35 33 33 31 29 27 24 24 24 24 25 25 25 24 24 24 24 25 27 28 28 28 30 31 31 31 31 31 31 32 32 33 34 35 36 35 35 34 34 35 37 39 39 37 35 37 39 37 38 42 41 36 33 31 29 27 28 30 29 28 30 31 32 32 32 33 33 34
5 4 5 2 3 3 3 3 4 3 1 4 5 6 11 10 10 16 20 18 22 27 25 29 34 31 32 32 33 33 32 32 30 29 27 24 24 23 24 25 25 25 24 24 24 23 25 27 27 28 29 29 30 31 32 32 32 32 32 33 33 34 35 36 36 36 36 36 36 37 39 39 37 35 37 40 40 43 45 42 37 35 33 30 29 32 34 32 31 34 35 35 35 35 34 34 34
4 4 4 2 3 1 2 4 5 3 1 2 4 6 10 8 6 12 18 20 23 25 25 30 32 31 33 33 31 31 30 30 27 25 24 23 22 22 23 23 23 25 24 23 23 23 24 24 25 27 28 29 29 30 31 31 32 32 33 34 34 35 36 36 37 38 38 38 38 38 38 38 37 36 35 37 41 46 46 41 37 37 36 32 30 33 35 34 33 36 38 37 37 38 38 37 37
1 3 6 3 3 3 3 3 3 3 4 3 4 5 8 5 5 8 9 9 14 16 16 23 26 26 30 30 27 26 26 25 23 20 19 19 19 20 20 20 21 22 22 21 20 20 21 21 22 24 25 27 28 29 30 31 32 33 34 35 36 37 38 38 39 39 40 40 39 39 38 36 36 36 36 37 40 43 43 41 40 39 39 36 33 33 35 36 36 38 41 41 39 40 40 39 39
2 3 6 6 6 6 2 2 4 4 5 3 4 4 6 5 6 8 7 6 9 11 12 19 24 21 21 23 21 20 20 19 19 17 15 15 16 17 18 18 19 20 19 18 18 19 19 20 21 22 23 25 26 28 30 31 32 33 35 36 37 38 39 40 40 40 40 40 39 38 37 37 36 36 37 39 39 40 43 45 44 42 41 40 38 35 34 38 39 40 43 43 41 41 40 40 41
1 4 5 6 7 7 5 3 3 1 3 3 4 3 5 7 6 9 8 8 11 14 14 21 31 28 20 18 18 16 16 15 14 13 12 12 13 14 15 16 16 16 15 15 17 18 19 19 20 20 21 22 24 26 28 30 32 34 35 36 37 38 39 40 39 39 39 39 39 38 37 37 37 37 37 39 39 42 47 49 46 43 42 41 40 38 38 41 42 40 43 46 43 42 43 42 42
3 4 6 7 8 8 6 6 3 2 3 5 4 4 3 7 7 7 5 6 9 12 13 18 30 31 21 17 19 17 14 12 10 10 9 9 10 10 10 11 11 11 12 14 15 16 17 17 18 19 20 21 22 24 26 29 31 33 34 35 37 38 38 38 37 38 38 38 38 38 38 38 39 39 39 40 41 43 48 48 45 42 41 42 42 43 44 42 40 40 45 47 44 44 46 44 43
4 4 7 7 7 7 5 6 3 2 3 5 4 2 2 6 8 6 3 3 7 11 13 14 21 24 18 17 18 15 12 9 8 9 8 7 6 5 5 6 8 9 11 12 12 13 14 15 16 17 18 19 21 22 24 26 27 29 31 33 34 35 35 35 36 36 37 37 38 38 39 39 40 41 42 44 44 45 46 47 47 45 44 46 47 47 44 40 40 42 45 48 47 46 48 46 44
4 5 7 6 6 6 5 5 3 3 2 5 5 5 3 5 7 5 2 2 7 10 10 10 15 18 14 11 11 9 8 7 7 8 8 5 4 5 6 7 8 9 10 10 10 11 12 13 14 15 16 17 18 20 21 22 23 25 27 28 29 30 31 33 34 35 35 36 37 38 39 39 40 41 43 46 48 48 48 48 50 50 48 48 47 45 43 43 44 44 44 49 51 49 47 46 45
9 7 7 7 6 5 4 3 4 2 3 7 7 7 4 4 6 5 4 4 6 6 7 8 11 11 7 6 6 6 5 6 7 7 7 7 7 7 6 7 8 9 9 9 9 9 9 11 12 13 13 14 15 17 18 19 20 22 23 24 25 26 28 29 31 32 33 34 36 37 38 38 39 39 40 44 48 52 53 52 50 49 48 47 45 45 47 47 46 44 44 49 53 51 48 46 45
7 5 5 4 4 4 4 4 4 1 5 6 5 2 3 4 6 5 6 8 6 5 7 8 8 4 2 3 4 4 5 6 6 5 6 7 7 6 5 5 6 7 7 7 7 7 8 9 11 12 12 12 13 14 15 17 18 20 21 22 23 23 24 26 27 28 29 31 33 34 36 36 37 38 38 41 44 48 54 56 54 52 50 48 48 49 49 47 45 44 45 48 52 51 47 46 45
5 5 6 4 2 2 2 3 0 3 6 4 2 1 2 6 7 7 9 10 8 8 9 9 7 2 2 3 3 4 5 5 4 4 5 6 6 5 4 4 4 5 5 6 7 8 9 9 11 12 11 11 12 13 14 15 16 18 19 20 21 21 22 24 25 26 27 28 29 31 33 35 35 36 37 40 42 43 47 53 55 54 52 51 52 49 45 43 44 44 46 49 52 51 47 47 46
4 5 6 5 3 2 3 3 1 4 5 3 2 1 3 5 4 9 11 8 6 6 9 9 7 2 1 1 3 5 5 5 5 5 6 6 5 4 4 3 4 4 5 7 8 9 10 11 12 12 12 12 12 13 14 15 15 16 17 18 19 20 22 23 23 25 26 27 28 30 31 33 34 35 36 38 40 41 43 46 49 51 51 52 50 44 41 42 43 44 46 49 52 51 49 47 45
4 4 6 5 5 5 4 4 3 4 3 3 3 1 4 3 2 7 11 11 11 10 9 9 8 8 8 8 8 8 8 8 7 7 7 6 5 4 4 3 3 3 4 6 7 9 10 11 11 12 12 12 12 13 13 14 14 15 17 18 19 20 21 22 23 24 26 27 28 30 31 31 32 33 35 36 38 40 42 42 43 45 47 48 44 40 41 43 43 44 46 48 50 49 49 48 44
2 2 4 4 5 5 2 3 6 3 2 3 2 3 5 4 5 8 9 13 13 11 10 10 10 9 10 13 13 12 11 10 8 8 7 6 5 4 4 3 2 2 1 2 4 5 7 8 9 10 11 11 12 13 14 14 15 16 17 18 19 20 21 21 22 23 25 27 28 30 31 32 31 31 34 36 37 38 39 38 39 41 42 42 42 41 42 43 43 44 45 46 47 47 49 48 44
2 2 3 5 4 6 4 2 0 3 2 3 2 5 6 3 7 9 6 8 10 9 10 12 12 10 12 17 18 16 13 10 9 8 6 5 5 4 4 4 3 3 3 3 4 5 6 7 8 9 11 12 13 14 15 16 16 17 17 18 19 20 21 21 21 22 24 26 28 30 32 32 31 30 32 34 35 36 36 36 37 39 40 42 43 42 43 44 43 42 42 43 43 44 47 48 45
5 4 6 2 2 4 4 2 2 3 3 4 2 6 6 2 5 6 3 6 9 8 9 12 15 16 18 21 21 18 12 9 10 8 6 5 6 6 6 6 5 5 5 5 6 7 8 9 10 11 12 13 15 17 18 18 18 18 18 19 20 21 22 22 21 22 24 25 28 30 31 32 31 29 29 32 34 34 34 35 38 40 41 42 43 44 45 45 44 43 43 43 43 44 46 47 46
5 4 4 4 2 1 2 2 2 1 3 5 4 5 5 5 6 3 1 6 9 9 9 10 13 18 21 21 21 18 12 9 8 6 4 4 7 6 5 5 4 4 4 4 5 7 9 10 12 13 14 16 17 19 20 21 21 20 20 20 21 22 23 23 23 22 23 25 27 28 30 31 31 30 29 30 32 34 35 38 40 41 43 43 43 44 45 46 47 48 47 45 45 47 47 47 46
3 2 3 3 3 4 3 3 3 4 4 3 3 3 4 6 7 6 7 9 8 9 9 8 13 22 25 22 20 16 9 4 4 3 3 2 6 5 4 4 2 2 2 3 5 8 10 11 12 13 15 17 20 22 23 23 24 24 24 22 22 23 24 25 24 23 23 24 26 28 29 30 30 29 29 30 32 35 39 41 41 41 43 44 44 45 46 49 50 50 49 47 46 48 49 48 47
3 3 4 3 1 2 2 1 2 4 4 3 3 5 6 5 4 9 11 10 10 11 11 10 17 26 27 23 20 12 4 2 7 8 4 2 4 3 2 1 3 2 2 5 9 11 12 12 12 13 14 17 22 25 25 25 25 26 27 26 25 24 25 26 25 25 24 23 25 27 29 30 29 29 30 31 32 34 38 42 42 41 43 44 44 46 47 50 51 50 49 48 47 49 51 51 51
7 7 8 8 6 4 3 4 2 2 3 5 4 6 9 5 4 7 8 8 10 13 12 12 18 23 20 16 14 6 4 5 10 12 8 5 5 2 1 3 6 6 8 11 14 15 15 15 13 13 15 20 24 27 27 27 27 26 27 28 28 28 27 27 27 26 25 24 25 26 28 30 30 29 30 31 33 33 35 39 41 42 43 43 43 46 46 47 48 48 48 49 50 50 51 53 55
Wind_Direction
247 272 277 269 258 245 290 338 60 3 65 93 111 112 149 211 168 121 122 62 73 52 69 80 82 95 107 106 115 103 75 126 179 152 169 153 149 154 154 152 155 153 147 145 145 142 142 139 135 133 131 127 123 119 115 116 113 112 108 104 95 86 83 83 86 85 82 78 75 74 77 80 79 80 88 94 99 103 104 105 103 100 99 99 100 101 101 101 102 105 106 104 102 99 95 93 89
257 269 269 247 245 248 284 54 80 353 52 83 275 140 150 338 82 144 185 155 136 119 92 88 92 96 101 102 101 80 47 26 165 138 134 144 149 157 157 154 158 156 151 149 147 146 146 143 142 139 135 132 128 124 120 120 119 117 113 107 96 86 83 83 86 87 83 79 76 73 74 76 79 81 88 96 98 99 103 105 104 101 100 98 103 107 106 105 108 109 110 109 105 102 97 93 90
259 259 254 230 269 291 76 58 87 78 76 114 258 266 105 76 132 191 205 146 128 120 105 96 94 94 100 92 64 70 75 86 132 133 136 150 156 159 160 158 161 161 156 152 150 151 150 149 148 144 142 139 135 131 127 127 125 123 119 112 103 94 88 86 86 88 86 82 79 74 74 74 77 81 88 101 105 103 104 106 106 104 104 103 107 110 110 108 111 112 113 112 109 105 97 89 84
257 250 232 229 315 353 66 62 131 116 115 163 190 274 224 142 166 206 165 130 132 128 119 103 76 72 101 101 87 92 121 132 139 140 147 159 161 157 158 161 166 165 161 157 154 155 155 153 152 150 149 145 140 136 132 131 129 127 125 118 109 101 92 87 86 90 91 87 82 76 74 75 78 83 94 106 108 110 112 111 110 108 107 108 110 112 113 112 113 115 115 115 113 106 94 85 77
259 236 212 246 340 14 78 73 104 106 163 177 150 249 233 169 167 189 143 127 140 134 129 115 85 95 101 103 111 113 138 148 152 152 154 161 161 155 158 165 169 167 164 161 158 161 160 158 156 155 151 146 141 136 136 134 134 133 130 125 113 102 93 88 85 92 96 93 86 78 75 75 77 83 97 110 112 113 114 115 114 113 113 114 117 118 118 117 116 117 119 119 115 107 97 93 88
249 216 219 271 349 24 89 93 108 117 206 165 144 223 217 190 167 158 136 122 120 118 128 125 129 128 97 83 107 130 135 149 164 163 158 161 162 159 162 167 170 168 167 164 163 166 165 164 160 157 152 148 142 139 141 139 141 140 137 132 118 103 95 90 87 97 101 98 92 82 78 77 78 82 94 111 120 120 120 123 123 124 126 125 126 124 122 119 115 116 121 119 115 109 103 102 102
215 203 241 271 40 33 99 129 152 166 217 166 156 178 192 199 167 144 131 127 109 111 123 129 138 129 97 102 114 135 136 149 167 166 161 164 166 164 165 168 170 170 168 166 166 169 169 168 164 161 157 152 147 145 146 146 149 146 144 140 128 111 101 97 94 101 105 102 96 87 81 80 80 83 93 108 125 132 136 138 137 138 133 128 128 125 122 118 115 117 120 116 112 109 106 105 106
168 158 95 117 53 31 94 116 194 173 113 162 158 164 177 181 164 146 139 148 134 128 123 138 146 118 127 154 140 159 149 143 162 165 164 169 169 167 169 169 171 170 168 167 167 171 172 171 169 167 164 160 155 152 151 151 155 154 151 150 144 124 112 108 104 106 110 108 101 93 84 81 80 83 93 103 116 132 144 149 147 145 136 130 130 125 123 119 117 118 118 115 112 109 107 106 105
160 130 45 92 78 35 59 42 349 186 121 139 142 168 174 171 162 144 137 145 144 144 130 149 159 128 164 168 149 163 155 145 158 165 168 174 172 172 174 171 173 170 167 168 169 172 174 174 173 173 171 168 163 159 157 154 158 162 161 160 154 136 126 121 114 111 114 114 109 101 89 84 83 85 93 102 108 116 131 143 144 144 140 136 134 129 126 123 120 119 118 115 111 107 104 103 104
168 128 126 81 76 51 48 2 175 143 177 171 168 172 170 169 160 143 141 143 147 142 132 151 156 145 156 150 146 160 163 159 163 170 175 177 175 177 178 171 173 173 169 169 171 174 177 178 176 179 179 174 170 166 165 162 161 164 168 169 165 150 142 134 121 113 116 118 114 107 95 86 84 89 95 103 107 109 114 123 131 138 138 137 137 133 131 126 122 120 117 114 110 105 101 101 107
162 42 125 81 70 95 170 193 210 190 158 176 186 173 167 164 154 140 138 140 156 146 139 147 142 144 139 139 158 166 171 174 173 175 176 177 178 182 182 174 173 175 173 171 173 176 180 182 182 185 185 182 178 173 172 172 169 168 170 173 173 166 158 149 133 122 122 124 122 115 105 94 88 93 98 105 109 111 113 116 123 131 135 138 138 136 132 128 124 122 118 114 110 106 102 103 111
149 329 81 90 116 181 189 159 176 202 123 151 182 185 173 160 148 145 145 146 166 156 152 160 154 148 120 133 171 174 178 177 176 174 174 178 182 186 186 178 173 177 178 176 177 178 182 187 188 190 190 189 185 180 181 180 179 177 175 175 175 173 168 160 143 134 133 133 132 126 117 105 97 100 104 109 111 111 113 116 120 126 134 138 137 135 132 130 126 122 119 115 110 109 107 106 110
132 162 88 96 183 153 146 140 181 103 44 204 186 186 174 162 160 164 154 150 163 157 157 160 162 158 113 163 175 179 180 174 172 174 175 179 185 190 189 180 175 179 184 185 183 183 185 189 192 193 192 192 190 187 188 188 187 185 183 181 179 180 179 174 157 147 147 143 139 134 126 114 105 106 110 113 114 114 114 117 123 128 134 136 135 134 133 131 127 123 121 118 114 111 112 113 109
107 145 103 111 107 116 140 129 197 134 221 241 192 173 171 168 171 167 151 146 171 157 148 153 165 167 141 163 189 187 176 170 171 175 177 178 186 192 191 183 178 181 189 192 189 190 188 190 194 195 194 193 194 191 191 195 193 190 190 188 185 187 188 186 176 163 163 159 150 143 135 126 114 112 117 120 119 118 118 120 127 133 137 137 137 136 135 133 127 124 122 119 114 110 114 117 115
111 85 99 104 60 112 168 158 163 150 217 231 179 168 156 143 165 171 157 152 181 160 147 151 166 182 185 177 198 187 172 167 169 173 176 176 185 193 195 189 183 186 193 196 193 196 194 194 196 196 198 196 196 195 194 197 198 195 192 193 190 191 192 192 187 176 173 172 165 155 148 141 132 125 127 131 131 125 125 127 132 139 142 142 142 139 137 134 127 122 119 115 111 109 114 118 120
141 75 82 81 100 176 183 168 134 137 226 208 173 164 138 116 152 173 171 161 166 160 158 158 169 193 190 182 187 175 168 165 167 171 174 176 186 194 196 194 191 192 198 200 197 198 199 199 200 199 201 201 201 199 198 200 200 199 195 196 196 194 194 193 193 188 181 178 178 170 160 155 150 146 140 142 143 138 135 135 139 145 149 149 147 144 141 137 127 119 113 108 107 107 112 119 122
149 87 72 67 178 190 191 175 164 164 214 205 180 169 145 122 146 162 171 169 162 163 172 167 175 179 179 186 159 166 168 167 167 171 175 179 188 194 196 197 196 198 202 204 201 201 201 202 203 202 203 205 205 203 203 203 203 201 199 200 200 199 195 196 198 196 193 188 187 182 172 166 161 161 154 152 153 150 146 142 147 153 157 157 153 149 146 143 134 123 113 105 103 103 107 114 119
133 108 99 175 190 195 187 187 200 170 165 185 188 179 159 150 151 148 147 160 158 160 177 170 173 164 161 172 155 165 172 171 171 174 178 183 190 194 197 199 200 204 205 205 205 204 204 205 204 204 206 207 208 208 207 207 206 205 203 203 203 202 199 200 200 200 202 194 188 187 184 177 168 170 166 161 162 160 158 153 154 160 164 164 161 157 153 151 144 132 119 104 100 100 106 112 117
119 99 102 207 210 198 200 194 199 182 168 176 182 183 174 169 162 151 148 164 157 154 173 173 178 169 162 163 158 168 177 177 178 180 184 189 194 198 199 201 205 208 209 208 208 208 208 207 207 207 208 209 210 210 210 210 210 209 207 207 207 206 206 205 203 204 204 197 192 190 190 187 178 177 176 170 170 169 167 164 162 165 171 173 172 168 161 158 154 145 130 112 106 108 114 121 126
140 100 112 233 217 198 319 85 193 231 185 169 173 182 181 178 169 166 170 168 171 185 186 184 191 186 178 174 169 174 181 184 186 187 191 195 200 204 205 207 210 212 214 213 212 211 211 211 211 211 210 211 212 212 211 211 212 212 211 211 211 210 211 211 208 208 205 200 199 196 193 196 190 184 184 180 175 177 177 175 173 174 178 182 182 177 169 167 166 161 148 130 124 129 138 139 138
154 119 164 223 193 170 351 47 9 221 178 170 169 171 185 183 176 184 169 145 235 224 206 208 213 202 191 186 183 182 186 189 191 193 196 200 204 208 212 216 219 221 220 218 217 216 215 214 214 213 212 213 214 214 213 213 213 213 213 214 215 213 213 215 213 211 208 203 205 203 195 200 202 194 191 189 181 181 185 186 185 185 187 188 188 186 183 180 179 178 170 153 148 153 158 154 145
106 118 206 187 163 160 163 73 72 173 167 166 160 158 179 174 181 196 175 161 228 228 220 225 227 217 206 200 196 192 193 194 195 198 200 204 208 211 215 218 221 223 224 224 222 222 220 218 217 216 215 215 215 216 216 216 215 215 216 217 217 216 214 216 217 217 214 206 207 210 200 200 206 199 194 193 188 185 190 195 195 193 194 196 194 195 196 194 192 191 185 172 168 169 166 160 150
118 252 264 160 177 170 152 135 145 174 164 154 155 165 168 160 190 207 195 205 222 229 233 233 233 230 221 213 206 203 202 201 202 203 204 206 210 214 216 218 221 223 225 227 227 226 225 223 221 219 218 218 217 218 218 218 218 217 218 219 220 219 216 216 219 221 220 213 209 213 208 202 202 199 194 195 194 189 192 200 201 200 201 203 201 200 203 203 200 198 191 182 180 179 172 162 154
118 180 242 140 162 152 150 149 141 168 167 152 153 162 164 166 192 210 217 226 223 222 221 219 225 228 228 222 216 215 213 212 212 212 212 213 215 218 219 221 223 225 226 227 227 227 227 227 226 224 222 221 221 220 219 220 219 218 219 221 222 222 220 219 221 223 225 221 214 214 213 205 202 202 197 195 197 195 198 203 205 207 207 207 206 202 206 208 203 199 194 188 189 187 177 166 160
94 161 202 143 136 154 154 161 146 154 162 151 153 158 168 182 198 227 233 229 219 216 210 195 204 217 229 228 226 223 219 219 218 217 217 219 221 221 222 224 223 225 228 227 226 226 227 229 229 229 227 224 223 223 222 221 220 220 220 220 221 222 223 222 222 224 227 226 221 216 214 211 206 206 203 199 201 203 207 210 211 213 211 209 209 206 205 209 207 202 197 194 196 194 183 171 166
172 154 169 157 149 157 154 178 169 156 164 154 169 166 158 187 242 261 243 237 225 222 222 220 222 226 227 226 227 225 222 220 218 218 220 220 221 222 223 224 226 228 231 230 229 228 227 228 229 231 231 228 226 225 225 225 223 223 223 222 222 223 223 222 221 223 227 229 228 221 215 216 214 210 209 206 207 213 217 220 219 218 217 212 210 209 207 207 209 207 204 202 201 199 187 176 173
158 140 141 139 143 152 153 188 183 171 176 162 194 197 155 181 202 258 249 241 223 221 225 229 233 235 231 224 223 224 223 221 220 222 221 220 221 224 224 224 229 231 231 231 231 231 228 228 229 230 231 231 229 229 229 229 228 227 227 224 223 224 223 221 220 221 225 229 231 229 221 219 220 217 214 212 213 218 221 225 225 222 220 214 208 208 209 205 206 210 210 209 208 204 192 182 180
143 131 107 56 70 204 222 193 182 174 171 182 196 211 210 151 178 248 251 237 222 222 223 228 231 233 234 229 224 222 224 224 224 225 225 227 230 233 232 233 236 236 235 236 234 233 230 229 230 229 231 231 231 232 232 231 231 231 230 227 227 227 225 222 220 219 222 227 231 233 228 223 224 224 221 219 220 222 225 226 225 224 219 212 207 206 209 207 206 208 210 211 207 205 198 189 187
140 126 93 355 3 339 248 219 190 176 149 202 68 354 275 202 222 244 248 230 238 232 223 224 227 232 234 234 232 228 229 229 229 231 235 239 243 243 244 246 247 244 245 244 239 236 235 233 232 230 230 231 231 232 233 233 233 233 233 232 232 232 227 223 223 221 221 224 228 232 232 229 228 228 226 224 225 225 227 227 222 220 213 207 205 206 208 209 210 210 211 212 206 202 200 194 190
142 117 94 40 12 340 255 227 188 170 165 195 111 299 272 250 236 242 252 252 247 238 227 223 226 232 234 236 236 234 236 237 236 240 244 244 245 245 247 249 250 250 249 246 243 241 239 237 235 234 232 233 233 232 233 232 232 232 233 235 235 235 232 227 225 225 223 224 226 229 231 232 232 231 228 226 228 228 227 226 223 220 214 208 207 208 209 209 213 216 216 214 208 203 200 198 194
133 100 68 70 89 284 287 228 160 149 209 210 112 207 262 276 265 261 270 257 237 231 230 226 229 231 233 236 237 239 241 242 246 251 252 251 249 247 248 247 247 249 248 245 246 245 243 240 238 237 236 237 235 233 234 232 231 231 232 234 232 231 234 234 230 227 225 224 226 227 228 231 234 234 232 231 230 232 231 225 222 221 219 216 212 209 209 210 214 220 223 219 211 203 199 200 200
49 102 308 347 149 259 306 228 171 157 205 204 109 219 266 278 284 313 312 247 215 224 234 231 234 235 236 238 238 242 247 249 253 255 254 253 251 249 249 246 245 246 246 246 246 246 245 243 241 239 238 238 238 237 236 234 232 230 230 231 230 227 229 234 234 234 233 230 225 226 228 229 231 234 235 237 235 235 236 230 224 223 224 224 219 213 213 213 215 220 223 223 218 206 198 200 202
2 105 203 269 158 253 310 257 205 176 156 195 142 223 274 285 275 354 31 183 201 227 240 237 239 242 242 244 245 248 252 253 252 253 254 253 252 252 251 248 245 245 247 248 247 246 245 245 244 242 239 238 239 240 238 236 233 232 231 230 230 229 229 232 234 238 239 233 227 226 229 227 229 232 234 237 237 236 237 234 228 225 226 227 225 222 221 217 215 220 221 220 222 213 202 200 202
293 46 163 222 180 184 268 288 252 158 139 234 167 206 255 270 273 276 279 261 251 249 252 252 249 250 251 251 252 252 253 254 255 259 262 262 260 259 258 255 249 246 247 247 247 247 247 248 248 247 245 241 240 241 240 238 235 234 234 231 230 231 232 234 235 236 231 229 233 233 230 229 228 231 234 236 239 238 237 235 231 228 226 226 229 230 226 219 214 220 223 219 217 215 208 203 203
190 185 151 225 210 191 234 259 234 143 122 231 183 226 255 265 276 273 267 268 269 263 262 264 261 259 258 257 256 255 255 256 260 265 268 267 266 265 264 261 252 246 244 245 247 247 247 247 247 248 248 245 242 241 240 238 235 234 233 231 230 231 232 233 234 234 228 227 236 237 231 228 228 233 236 236 239 240 238 235 231 230 228 226 231 231 225 220 216 218 223 222 216 212 211 209 207
170 177 145 160 180 228 243 251 251 165 129 236 225 229 252 260 272 273 270 272 270 266 268 266 264 262 261 259 258 257 258 259 263 266 267 266 266 265 264 261 256 249 245 245 245 246 246 244 244 244 245 246 244 241 238 235 233 231 231 229 230 231 233 232 231 233 230 227 230 230 227 226 230 237 239 239 239 238 239 238 231 228 228 227 230 231 227 224 223 221 220 221 218 209 208 213 212
134 127 110 153 171 237 256 271 304 117 146 249 242 242 259 260 265 270 271 277 274 264 263 261 262 261 259 259 258 258 258 261 265 266 265 264 262 262 261 259 256 251 247 246 245 246 247 246 244 242 242 244 243 241 239 236 234 232 231 232 233 234 233 233 232 232 232 228 225 226 226 230 236 238 239 242 241 239 239 239 233 226 226 227 232 236 234 230 228 225 221 220 220 213 207 210 213
96 122 120 153 184 223 246 247 304 24 144 266 308 292 268 259 263 268 270 274 265 255 252 256 259 258 258 258 259 261 263 265 267 266 265 262 259 257 256 255 253 252 251 248 249 250 249 248 247 245 243 243 244 244 242 240 239 238 239 239 239 239 238 237 238 237 235 232 228 228 229 233 238 237 235 238 241 243 239 236 233 228 226 229 233 236 232 228 229 226 222 219 218 218 214 211 210
82 118 127 171 227 263 295 296 313 18 131 272 352 330 276 263 257 262 262 256 258 258 253 256 260 260 260 260 262 265 268 269 269 267 267 266 262 257 255 254 253 254 253 251 252 251 250 251 250 248 246 244 244 245 245 243 242 241 241 242 242 242 242 241 242 243 240 238 236 235 234 235 238 237 234 233 239 243 238 234 233 228 227 230 233 234 226 224 229 227 222 220 216 215 216 217 214
91 114 131 212 255 257 271 289 312 0 43 277 354 322 283 283 277 267 262 256 263 267 261 259 259 259 262 263 265 268 270 271 272 271 270 268 265 259 255 254 252 251 250 250 251 251 251 252 253 252 249 248 246 246 246 246 244 242 240 241 242 242 244 243 243 244 243 243 242 241 241 239 237 238 236 234 238 241 236 233 235 232 230 232 233 233 229 228 234 231 222 220 220 215 214 216 215
16 134 145 189 220 171 203 273 315 354 359 16 32 331 290 310 325 288 280 274 273 276 275 268 259 256 260 262 263 263 266 270 273 275 273 269 266 262 259 256 252 249 248 249 251 252 255 256 257 255 253 251 249 247 247 246 244 243 241 240 241 241 242 242 242 243 244 244 244 244 243 240 235 236 236 236 237 239 238 237 240 238 232 232 232 233 237 238 240 239 227 220 222 222 218 216 212
300 234 178 173 169 156 162 355 29 29 344 331 39 353 288 314 318 280 294 319 296 293 297 284 275 265 257 258 261 260 263 269 273 276 273 268 264 259 257 253 249 247 247 248 250 253 256 258 258 256 255 252 250 249 247 247 246 245 244 243 243 242 242 243 243 245 245 246 247 246 243 240 238 236 234 235 235 237 239 239 239 237 232 233 234 236 242 240 240 243 235 224 223 225 225 221 215
252 244 178 147 127 121 123 90 59 72 262 295 55 103 266 303 290 260 278 296 290 291 292 284 280 275 264 261 265 262 266 273 276 277 272 264 259 255 252 248 246 246 246 246 247 250 253 255 256 255 254 252 251 251 249 249 249 248 249 248 249 250 250 251 252 252 252 251 252 250 246 240 238 237 234 234 236 237 237 236 236 236 234 234 234 239 247 244 243 247 240 229 225 226 226 225 222
228 231 140 128 119 127 135 111 101 229 254 318 17 122 232 290 270 257 276 280 280 280 279 276 272 271 272 269 263 260 267 278 280 270 263 261 260 257 251 243 240 238 239 241 243 248 252 255 257 256 255 253 250 250 250 250 250 251 252 252 253 254 255 257 257 256 256 255 254 253 251 244 239 236 233 232 235 235 234 234 234 235 236 237 239 244 248 245 245 247 239 229 226 228 228 227 225
240 203 127 130 130 130 118 102 100 4 8 311 309 130 206 269 274 294 338 287 278 268 261 263 268 275 283 274 263 261 266 269 262 247 243 257 258 241 224 214 218 221 226 234 239 245 250 252 254 253 252 251 249 249 249 249 251 252 253 253 255 256 257 258 257 257 256 255 254 254 254 252 246 240 233 231 232 233 234 234 235 238 242 244 244 243 242 245 248 247 241 232 228 230 230 227 225
179 141 96 77 77 85 78 94 110 43 2 256 226 174 211 267 279 300 350 287 262 261 262 266 277 284 283 271 263 262 258 242 231 226 222 224 199 178 181 184 195 206 213 223 231 237 243 248 249 250 250 249 248 249 249 250 251 252 253 254 256 257 257 256 256 256 255 254 253 252 253 254 253 248 239 232 230 231 233 234 237 241 244 244 241 238 240 249 252 248 244 238 232 231 229 227 225
134 100 63 49 33 42 46 58 86 68 285 256 222 189 198 275 277 252 229 225 226 258 288 285 284 288 279 267 260 247 233 211 208 210 205 195 178 172 177 179 187 197 205 215 222 230 241 247 249 250 249 249 249 250 251 252 253 255 256 258 259 259 259 257 257 257 256 255 254 253 253 253 254 253 247 238 232 230 231 233 236 238 240 238 236 239 246 252 252 246 242 238 234 231 229 226 225
110 80 76 70 351 9 21 2 47 135 252 265 266 214 165 238 258 250 250 252 238 239 264 277 293 303 256 228 220 200 188 185 186 193 201 194 185 185 186 185 194 203 215 223 227 234 243 250 254 255 253 252 255 256 257 258 258 260 261 262 263 263 262 261 261 261 260 259 257 256 255 254 253 253 250 244 236 232 231 231 233 234 236 236 236 242 249 251 249 244 241 239 235 233 231 227 225
76 91 100 95 337 5 342 301 248 225 245 266 298 283 216 235 241 253 263 262 251 230 227 254 279 266 123 127 171 187 181 184 189 187 200 203 199 204 205 210 225 234 246 249 246 245 249 256 261 263 263 261 261 262 263 264 265 267 267 267 267 266 265 266 267 267 265 264 262 260 257 255 253 252 249 246 241 236 232 230 231 232 233 235 238 243 246 247 247 244 241 239 234 231 229 227 227
128 136 133 138 136 137 251 262 264 262 262 284 304 239 253 275 261 241 243 248 262 261 248 259 273 257 356 324 230 227 211 214 224 201 193 205 213 217 219 231 246 252 261 263 262 262 262 265 268 271 271 266 265 267 268 270 272 274 274 273 271 268 267 268 269 270 269 268 267 265 263 260 255 252 250 247 244 239 233 231 231 231 232 234 237 240 242 245 247 245 242 239 234 230 228 226 228
181 155 136 155 160 165 207 212 213 250 279 297 300 240 204 227 273 245 250 272 288 287 277 277 277 266 269 265 247 239 233 231 228 208 197 210 220 217 213 217 230 246 264 272 277 278 276 277 278 280 278 274 272 273 273 275 278 280 279 278 276 272 270 269 269 270 270 271 271 271 271 268 262 255 251 248 244 239 236 233 231 231 232 233 235 237 241 244 245 244 243 240 237 234 230 227 228
229 115 112 187 190 151 133 190 182 181 310 299 251 233 216 209 273 271 266 283 287 280 276 278 273 264 263 265 258 246 237 235 234 225 219 224 221 204 182 171 183 207 265 294 312 313 307 303 296 290 285 278 275 273 274 277 279 279 278 278 278 275 272 269 269 270 272 274 275 276 276 275 271 260 252 248 243 238 237 236 233 232 232 233 234 236 240 242 243 243 241 239 238 236 233 230 229
178 144 183 216 177 123 107 245 122 81 261 272 207 248 284 325 288 281 272 280 291 289 281 279 273 265 266 271 269 257 243 239 243 243 242 233 209 184 160 144 135 116 94 64 43 24 7 352 335 321 302 283 274 272 274 276 277 275 274 274 274 273 272 271 271 272 274 276 277 278 278 279 276 266 253 247 242 237 235 234 233 233 234 234 235 235 237 239 238 238 237 236 236 234 233 232 232
134 187 206 181 88 91 108 211 344 40 248 272 244 242 274 303 271 303 327 263 276 288 281 279 276 267 265 269 270 264 252 250 258 260 253 222 185 170 155 141 127 115 102 82 62 42 27 14 2 351 334 313 295 284 276 272 270 270 270 270 271 271 272 271 272 272 273 275 277 279 280 280 279 272 257 247 240 234 233 234 234 236 236 237 237 236 236 236 234 232 231 233 234 232 232 233 233
133 185 177 115 124 205 109 162 199 166 234 271 285 261 253 218 223 280 283 222 241 264 268 275 273 263 258 259 264 267 263 267 278 274 253 201 167 163 156 142 127 111 98 79 54 28 16 7 0 356 349 340 327 311 295 280 272 269 269 270 270 271 271 270 270 271 272 275 279 281 282 282 280 275 264 250 238 230 230 232 234 236 237 237 238 238 236 234 232 230 230 232 234 232 231 232 234
61 93 112 100 147 174 166 165 170 172 201 246 300 304 257 227 205 192 210 217 215 234 250 257 252 249 249 253 265 273 264 274 333 344 300 189 157 162 158 147 136 121 100 52 20 1 354 347 345 345 344 342 336 328 318 303 289 279 273 271 269 270 271 272 271 269 271 275 279 282 283 283 281 275 267 256 243 231 226 229 232 235 238 239 238 237 237 235 233 233 232 232 234 234 232 233 234
142 154 177 192 127 108 166 193 131 143 171 197 263 277 262 252 195 177 200 217 213 219 232 237 242 248 253 257 263 260 213 66 18 18 12 132 149 159 172 238 311 308 336 351 344 336 331 329 330 332 335 337 333 327 322 317 308 294 282 275 272 272 271 272 272 270 270 273 276 280 282 283 280 275 267 259 251 238 229 228 232 235 239 240 238 237 239 241 238 236 235 232 233 236 236 235 234
174 180 193 191 172 136 168 235 228 128 170 179 196 266 266 243 195 185 196 211 221 225 226 236 251 258 264 262 252 223 126 59 28 30 42 95 127 127 217 308 324 323 324 328 326 322 318 315 319 326 332 335 331 324 319 316 314 308 297 285 278 275 273 271 270 269 270 271 272 276 279 281 279 275 268 260 254 244 233 229 231 233 237 239 239 238 241 243 240 238 237 235 233 235 238 238 237